THY1886 LOWW-LTFM

Flight info

Callsign THY1886
Flight time 1h 54m
Altitude 37000
Route ASPI2C/29 ADAMA DCT VEDER DCT ALAMU DCT EPARI DCT BUDOP DCT AGMEL DCT NOPTI DCT TIMUR L606 GASRU T390 RILEX
Aircraft A320/M-SDE3FGHIRWY/LB1

Departure

Time 2026-04-25 22:28
Airport Vienna International Airport (LOWW)

Arrival

Time 2026-04-26 00:23
Airport İstanbul Airport (LTFM)
Time Latitude Longitude Altitude Speed Heading
2026-04-25 21:40 48.11760 16.56624 603 ft 0 kts 27°
2026-04-25 22:10 48.11755 16.56621 602 ft 4 kts 27°
2026-04-25 22:10 48.11731 16.56603 603 ft 4 kts 29°
2026-04-25 22:10 48.11710 16.56579 621 ft 4 kts 56°
2026-04-25 22:11 48.11702 16.56545 617 ft 4 kts 103°
2026-04-25 22:11 48.11706 16.56527 618 ft 1 kts 117°
2026-04-25 22:11 48.11707 16.56526 617 ft 2 kts 117°
2026-04-25 22:17 48.11704 16.56535 605 ft 1 kts 117°
2026-04-25 22:17 48.11698 16.56553 614 ft 3 kts 115°
2026-04-25 22:17 48.11688 16.56584 614 ft 4 kts 116°
2026-04-25 22:17 48.11674 16.56628 613 ft 5 kts 115°
2026-04-25 22:18 48.11657 16.56681 618 ft 6 kts 115°
2026-04-25 22:18 48.11639 16.56736 611 ft 6 kts 115°
2026-04-25 22:18 48.11623 16.56788 619 ft 5 kts 115°
2026-04-25 22:18 48.11607 16.56836 613 ft 5 kts 116°
2026-04-25 22:19 48.11593 16.56879 616 ft 5 kts 116°
2026-04-25 22:19 48.11578 16.56924 616 ft 5 kts 116°
2026-04-25 22:19 48.11557 16.56988 617 ft 9 kts 116°
2026-04-25 22:19 48.11520 16.57100 622 ft 13 kts 116°
2026-04-25 22:20 48.11480 16.57223 621 ft 13 kts 116°
2026-04-25 22:20 48.11442 16.57340 623 ft 11 kts 116°
2026-04-25 22:20 48.11381 16.57376 614 ft 9 kts 197°
2026-04-25 22:20 48.11334 16.57346 630 ft 7 kts 205°
2026-04-25 22:21 48.11293 16.57316 617 ft 7 kts 206°
2026-04-25 22:21 48.11251 16.57285 622 ft 6 kts 206°
2026-04-25 22:21 48.11218 16.57261 625 ft 4 kts 205°
2026-04-25 22:21 48.11195 16.57244 621 ft 3 kts 206°
2026-04-25 22:22 48.11193 16.57243 621 ft 0 kts 206°
2026-04-25 22:26 48.11183 16.57236 631 ft 3 kts 206°
2026-04-25 22:26 48.11159 16.57218 633 ft 4 kts 207°
2026-04-25 22:26 48.11086 16.57125 634 ft 21 kts 243°
2026-04-25 22:26 48.11087 16.57008 632 ft 0 kts 291°
2026-04-25 22:27 48.11151 16.56810 632 ft 55 kts 296°
2026-04-25 22:27 48.11417 16.55986 622 ft 118 kts 296°
2026-04-25 22:28 48.11847 16.54648 634 ft 163 kts 295°
2026-04-25 22:28 48.12348 16.53113 1202 ft 161 kts 295°
2026-04-25 22:28 48.12808 16.51656 2047 ft 145 kts 296°
2026-04-25 22:28 48.12863 16.50195 2552 ft 155 kts 253°
2026-04-25 22:29 48.11963 16.49110 2722 ft 189 kts 202°
2026-04-25 22:29 48.10615 16.48810 2848 ft 200 kts 194°
2026-04-25 22:29 48.09212 16.48545 2981 ft 206 kts 194°
2026-04-25 22:30 48.06292 16.48269 3231 ft 221 kts 172°
2026-04-25 22:30 48.04853 16.49142 3363 ft 226 kts 152°
2026-04-25 22:30 48.03555 16.50487 3477 ft 227 kts 147°
2026-04-25 22:30 48.02669 16.51355 3550 ft 233 kts 149°
2026-04-25 22:31 48.00815 16.53067 3961 ft 234 kts 150°
2026-04-25 22:31 47.99423 16.54328 4283 ft 235 kts 150°
2026-04-25 22:31 47.98061 16.55676 4597 ft 236 kts 140°
2026-04-25 22:31 47.97012 16.57502 4897 ft 235 kts 120°
2026-04-25 22:32 47.96398 16.59741 5211 ft 233 kts 100°
2026-04-25 22:32 47.96290 16.62116 5507 ft 229 kts 82°
2026-04-25 22:32 47.96379 16.64483 5824 ft 227 kts 83°
2026-04-25 22:32 47.96462 16.66845 6122 ft 228 kts 83°
2026-04-25 22:33 47.96546 16.69210 6398 ft 230 kts 83°
2026-04-25 22:33 47.96631 16.71603 6649 ft 231 kts 84°
2026-04-25 22:33 47.96719 16.74005 6892 ft 232 kts 84°
2026-04-25 22:33 47.96808 16.76406 7109 ft 233 kts 83°
2026-04-25 22:34 47.96897 16.78825 7345 ft 234 kts 84°
2026-04-25 22:34 47.96986 16.81260 7653 ft 235 kts 84°
2026-04-25 22:34 47.97075 16.83695 8005 ft 236 kts 83°
2026-04-25 22:34 47.97163 16.86148 8318 ft 237 kts 83°
2026-04-25 22:35 47.97251 16.88605 8532 ft 239 kts 84°
2026-04-25 22:35 47.97338 16.91089 8767 ft 240 kts 84°
2026-04-25 22:35 47.97424 16.93576 8999 ft 241 kts 84°
2026-04-25 22:35 47.97511 16.96104 9164 ft 249 kts 84°
2026-04-25 22:36 47.97607 16.98789 9256 ft 270 kts 84°
2026-04-25 22:36 47.97712 17.01667 9511 ft 286 kts 84°
2026-04-25 22:36 47.97823 17.04734 9789 ft 303 kts 84°
2026-04-25 22:36 47.97936 17.07956 10142 ft 318 kts 84°
2026-04-25 22:37 47.98047 17.11216 10552 ft 323 kts 84°
2026-04-25 22:37 47.98165 17.14682 10679 ft 344 kts 85°
2026-04-25 22:37 47.98288 17.18350 10807 ft 365 kts 85°
2026-04-25 22:37 47.98414 17.22236 10962 ft 383 kts 85°
2026-04-25 22:38 47.98539 17.26242 11463 ft 384 kts 85°
2026-04-25 22:38 47.98655 17.30274 11831 ft 394 kts 88°
2026-04-25 22:38 47.98470 17.34397 12324 ft 402 kts 97°
2026-04-25 22:38 47.97839 17.38476 12892 ft 407 kts 107°
2026-04-25 22:39 47.96948 17.42513 13471 ft 411 kts 108°
2026-04-25 22:39 47.96050 17.46586 14026 ft 415 kts 108°
2026-04-25 22:39 47.95148 17.50696 14561 ft 418 kts 108°
2026-04-25 22:39 47.94242 17.54823 15097 ft 421 kts 108°
2026-04-25 22:40 47.93326 17.58989 15647 ft 424 kts 108°
2026-04-25 22:40 47.92402 17.63196 16191 ft 428 kts 108°
2026-04-25 22:40 47.91472 17.67425 16714 ft 432 kts 108°
2026-04-25 22:40 47.90527 17.71692 17239 ft 435 kts 108°
2026-04-25 22:41 47.89571 17.75995 17773 ft 439 kts 108°
2026-04-25 22:41 47.88610 17.80315 18297 ft 442 kts 108°
2026-04-25 22:41 47.87639 17.84681 18743 ft 445 kts 108°
2026-04-25 22:41 47.86661 17.89063 19193 ft 448 kts 108°
2026-04-25 22:42 47.85671 17.93481 19638 ft 450 kts 108°
2026-04-25 22:42 47.84655 17.97894 20066 ft 453 kts 111°
2026-04-25 22:42 47.83366 18.02182 20497 ft 456 kts 115°
2026-04-25 22:42 47.82022 18.06470 20935 ft 458 kts 116°
2026-04-25 22:43 47.80674 18.10769 21382 ft 460 kts 116°
2026-04-25 22:43 47.79313 18.15098 21776 ft 463 kts 116°
2026-04-25 22:43 47.77944 18.19452 22175 ft 465 kts 116°
2026-04-25 22:43 47.76571 18.23822 22571 ft 468 kts 116°
2026-04-25 22:44 47.75210 18.28160 22965 ft 470 kts 115°
2026-04-25 22:44 47.74055 18.32712 23345 ft 474 kts 106°
2026-04-25 22:44 47.73356 18.37511 23687 ft 476 kts 97°
2026-04-25 22:44 47.72983 18.42406 23998 ft 479 kts 95°
2026-04-25 22:45 47.72609 18.47399 24310 ft 482 kts 95°
2026-04-25 22:45 47.72238 18.52294 24622 ft 484 kts 96°
2026-04-25 22:45 47.71854 18.57279 24931 ft 487 kts 96°
2026-04-25 22:45 47.71467 18.62283 25238 ft 489 kts 96°
2026-04-25 22:46 47.71076 18.67297 25540 ft 491 kts 96°
2026-04-25 22:46 47.70675 18.72367 25840 ft 493 kts 96°
2026-04-25 22:46 47.70272 18.77426 26129 ft 496 kts 96°
2026-04-25 22:46 47.69863 18.82528 26415 ft 498 kts 95°
2026-04-25 22:47 47.69452 18.87658 26670 ft 502 kts 96°
2026-04-25 22:47 47.68992 18.92794 26942 ft 505 kts 99°
2026-04-25 22:47 47.68116 18.97859 27215 ft 508 kts 109°
2026-04-25 22:47 47.66753 19.02708 27492 ft 510 kts 118°
2026-04-25 22:48 47.65026 19.07316 27788 ft 511 kts 120°
2026-04-25 22:48 47.63271 19.11903 28189 ft 510 kts 120°
2026-04-25 22:48 47.61525 19.16480 28589 ft 510 kts 120°
2026-04-25 22:48 47.59787 19.21045 28976 ft 509 kts 121°
2026-04-25 22:49 47.58637 19.24064 29304 ft 508 kts 121°
2026-04-25 22:49 47.56334 19.30096 29854 ft 506 kts 121°
2026-04-25 22:49 47.55163 19.33155 30124 ft 506 kts 121°
2026-04-25 22:49 47.53431 19.37670 30454 ft 505 kts 121°
2026-04-25 22:50 47.51126 19.43660 30884 ft 504 kts 121°
2026-04-25 22:50 47.49392 19.48152 31214 ft 504 kts 121°
2026-04-25 22:50 47.48213 19.51204 31431 ft 503 kts 122°
2026-04-25 22:50 47.46479 19.55682 31749 ft 503 kts 121°
2026-04-25 22:51 47.44733 19.60182 31927 ft 505 kts 121°
2026-04-25 22:51 47.43005 19.64630 31962 ft 505 kts 121°
2026-04-25 22:51 47.39484 19.73680 32007 ft 506 kts 121°
2026-04-25 22:52 47.37728 19.78191 32338 ft 505 kts 121°
2026-04-25 22:52 47.36002 19.82619 32645 ft 505 kts 121°
2026-04-25 22:52 47.34252 19.87104 32941 ft 505 kts 122°
2026-04-25 22:52 47.32493 19.91594 33201 ft 506 kts 122°
2026-04-25 22:53 47.30732 19.96070 33454 ft 506 kts 122°
2026-04-25 22:53 47.28964 20.00554 33738 ft 506 kts 122°
2026-04-25 22:53 47.27202 20.05022 34012 ft 506 kts 122°
2026-04-25 22:53 47.25433 20.09501 34263 ft 505 kts 122°
2026-04-25 22:54 47.23667 20.13971 34517 ft 504 kts 122°
2026-04-25 22:54 47.21909 20.18421 34775 ft 504 kts 122°
2026-04-25 22:54 47.20143 20.22880 34921 ft 504 kts 122°
2026-04-25 22:54 47.18371 20.27345 34955 ft 505 kts 122°
2026-04-25 22:55 47.14821 20.36259 34948 ft 506 kts 122°
2026-04-25 22:55 47.11269 20.45163 34946 ft 506 kts 122°
2026-04-25 22:56 47.07697 20.54065 34943 ft 505 kts 122°
2026-04-25 22:56 47.04120 20.62938 34948 ft 506 kts 122°
2026-04-25 22:57 47.00538 20.71813 34954 ft 506 kts 122°
2026-04-25 22:57 46.96971 20.80641 34953 ft 506 kts 122°
2026-04-25 22:58 46.93352 20.89568 34968 ft 506 kts 122°
2026-04-25 22:58 46.89769 20.98361 34962 ft 507 kts 123°
2026-04-25 22:59 46.86149 21.07216 34971 ft 507 kts 123°
2026-04-25 22:59 46.82523 21.16075 34978 ft 508 kts 123°
2026-04-25 23:00 46.78889 21.24901 34978 ft 508 kts 123°
2026-04-25 23:00 46.75238 21.33739 34986 ft 508 kts 123°
2026-04-25 23:01 46.71582 21.42566 34992 ft 508 kts 122°
2026-04-25 23:01 46.68672 21.51951 34989 ft 509 kts 113°
2026-04-25 23:02 46.67099 21.56535 34988 ft 506 kts 124°
2026-04-25 23:02 46.65037 21.60668 34994 ft 503 kts 134°
2026-04-25 23:02 46.59927 21.67475 34992 ft 496 kts 146°
2026-04-25 23:03 46.54542 21.73608 34978 ft 496 kts 146°
2026-04-25 23:03 46.49110 21.79807 35000 ft 496 kts 146°
2026-04-25 23:04 46.43684 21.85955 35003 ft 495 kts 146°
2026-04-25 23:04 46.38238 21.92097 35014 ft 495 kts 146°
2026-04-25 23:05 46.32789 21.98212 35015 ft 495 kts 146°
2026-04-25 23:05 46.27075 22.03656 34998 ft 491 kts 152°
2026-04-25 23:06 46.21275 22.08860 35019 ft 491 kts 152°
2026-04-25 23:06 46.15483 22.14058 35022 ft 490 kts 152°
2026-04-25 23:07 46.09682 22.19255 35030 ft 490 kts 152°
2026-04-25 23:07 46.03881 22.24425 35028 ft 490 kts 152°
2026-04-25 23:08 45.98128 22.29541 35012 ft 489 kts 152°
2026-04-25 23:08 45.92329 22.34691 35025 ft 489 kts 152°
2026-04-25 23:09 45.86535 22.39818 35030 ft 489 kts 152°
2026-04-25 23:09 45.80740 22.44937 35043 ft 489 kts 152°
2026-04-25 23:10 45.74942 22.50051 35032 ft 490 kts 152°
2026-04-25 23:10 45.69139 22.55160 35045 ft 489 kts 152°
2026-04-25 23:11 45.63335 22.60249 35046 ft 488 kts 152°
2026-04-25 23:11 45.57541 22.65315 35052 ft 489 kts 152°
2026-04-25 23:12 45.51734 22.70382 35050 ft 489 kts 152°
2026-04-25 23:12 45.45937 22.75435 35038 ft 488 kts 152°
2026-04-25 23:13 45.40143 22.80458 35045 ft 488 kts 152°
2026-04-25 23:13 45.34375 22.85446 35045 ft 488 kts 152°
2026-04-25 23:14 45.28542 22.90488 35046 ft 488 kts 152°
2026-04-25 23:14 45.22790 22.95458 35032 ft 488 kts 152°
2026-04-25 23:15 45.16995 23.00448 35035 ft 487 kts 152°
2026-04-25 23:15 45.11180 23.05433 35034 ft 487 kts 152°
2026-04-25 23:16 45.05381 23.10394 35031 ft 487 kts 152°
2026-04-25 23:16 44.99579 23.15349 35024 ft 487 kts 152°
2026-04-25 23:17 44.93762 23.20299 35007 ft 488 kts 152°
2026-04-25 23:17 44.87944 23.25246 35011 ft 488 kts 152°
2026-04-25 23:18 44.82130 23.30174 35024 ft 488 kts 152°
2026-04-25 23:18 44.76319 23.35099 35006 ft 488 kts 152°
2026-04-25 23:19 44.70531 23.39982 35008 ft 488 kts 152°
2026-04-25 23:19 44.64697 23.44886 35001 ft 488 kts 152°
2026-04-25 23:20 44.58859 23.49786 35014 ft 488 kts 152°
2026-04-25 23:20 44.53027 23.54673 34995 ft 489 kts 152°
2026-04-25 23:21 44.47191 23.59550 34993 ft 489 kts 152°
2026-04-25 23:21 44.41344 23.64427 34995 ft 489 kts 152°
2026-04-25 23:22 44.35500 23.69295 34996 ft 489 kts 152°
2026-04-25 23:23 44.26726 23.76581 35007 ft 489 kts 152°
2026-04-25 23:23 44.20870 23.81412 35010 ft 489 kts 152°
2026-04-25 23:24 44.15007 23.86242 35005 ft 489 kts 152°
2026-04-25 23:24 44.09149 23.91068 35006 ft 489 kts 152°
2026-04-25 23:25 44.03282 23.95889 35015 ft 489 kts 152°
2026-04-25 23:25 43.97446 24.00665 34995 ft 489 kts 151°
2026-04-25 23:26 43.91585 24.05456 35002 ft 489 kts 151°
2026-04-25 23:26 43.85720 24.10249 35006 ft 489 kts 152°
2026-04-25 23:27 43.79868 24.15012 35008 ft 488 kts 152°
2026-04-25 23:27 43.73998 24.19765 35008 ft 488 kts 152°
2026-04-25 23:28 43.68297 24.24846 35011 ft 489 kts 141°
2026-04-25 23:28 43.63351 24.31308 35013 ft 490 kts 136°
2026-04-25 23:29 43.58449 24.37847 35010 ft 489 kts 136°
2026-04-25 23:29 43.53545 24.44354 35013 ft 489 kts 136°
2026-04-25 23:30 43.48633 24.50865 35017 ft 489 kts 136°
2026-04-25 23:30 43.43731 24.57353 35013 ft 489 kts 136°
2026-04-25 23:31 43.38821 24.63832 35024 ft 489 kts 136°
2026-04-25 23:31 43.33947 24.70265 35033 ft 489 kts 136°
2026-04-25 23:32 43.29034 24.76711 35032 ft 489 kts 136°
2026-04-25 23:32 43.24114 24.83149 35032 ft 489 kts 136°
2026-04-25 23:33 43.19194 24.89576 35044 ft 489 kts 136°
2026-04-25 23:33 43.14272 24.96002 35039 ft 488 kts 136°
2026-04-25 23:34 43.09358 25.02401 35045 ft 488 kts 136°
2026-04-25 23:34 43.04438 25.08798 35051 ft 487 kts 136°
2026-04-25 23:35 42.99528 25.15175 35055 ft 487 kts 136°
2026-04-25 23:35 42.94614 25.21531 35054 ft 487 kts 136°
2026-04-25 23:36 42.90524 25.26807 35052 ft 487 kts 136°
2026-04-25 23:36 42.85601 25.33153 35051 ft 486 kts 136°
2026-04-25 23:37 42.80686 25.39466 35062 ft 486 kts 136°
2026-04-25 23:37 42.75775 25.45768 35052 ft 485 kts 136°
2026-04-25 23:38 42.70859 25.52067 35060 ft 485 kts 136°
2026-04-25 23:38 42.65951 25.58342 35054 ft 484 kts 136°
2026-04-25 23:39 42.61034 25.64606 35048 ft 484 kts 136°
2026-04-25 23:39 42.56126 25.70837 35049 ft 483 kts 136°
2026-04-25 23:40 42.51252 25.77022 35051 ft 482 kts 136°
2026-04-25 23:40 42.46356 25.83218 35047 ft 481 kts 136°
2026-04-25 23:41 42.41462 25.89395 35042 ft 481 kts 136°
2026-04-25 23:41 42.36563 25.95570 35040 ft 481 kts 136°
2026-04-25 23:42 42.31670 26.01720 35039 ft 480 kts 135°
2026-04-25 23:42 42.26808 26.07887 35036 ft 478 kts 131°
2026-04-25 23:43 42.22953 26.15098 35041 ft 473 kts 116°
2026-04-25 23:43 42.19748 26.22859 35044 ft 473 kts 117°
2026-04-25 23:44 42.16521 26.30575 35045 ft 472 kts 117°
2026-04-25 23:44 42.13311 26.38227 35042 ft 471 kts 117°
2026-04-25 23:45 42.10083 26.45910 35040 ft 471 kts 117°
2026-04-25 23:45 42.06863 26.53580 35045 ft 470 kts 117°
2026-04-25 23:45 42.05250 26.57410 34841 ft 469 kts 117°
2026-04-25 23:46 42.03645 26.61213 34529 ft 468 kts 117°
2026-04-25 23:46 42.02022 26.65050 33617 ft 474 kts 117°
2026-04-25 23:46 42.00386 26.68907 32754 ft 477 kts 117°
2026-04-25 23:46 41.98738 26.72795 31869 ft 480 kts 117°
2026-04-25 23:47 41.97074 26.76714 31092 ft 480 kts 117°
2026-04-25 23:47 41.95400 26.80576 30450 ft 477 kts 118°
2026-04-25 23:47 41.93695 26.84378 29953 ft 472 kts 119°
2026-04-25 23:47 41.91984 26.88112 29403 ft 470 kts 120°
2026-04-25 23:48 41.90259 26.91847 28901 ft 470 kts 120°
2026-04-25 23:48 41.88541 26.95575 28389 ft 470 kts 120°
2026-04-25 23:48 41.86827 26.99313 27875 ft 471 kts 120°
2026-04-25 23:48 41.85113 27.03065 27352 ft 469 kts 120°
2026-04-25 23:49 41.83431 27.06749 27143 ft 456 kts 120°
2026-04-25 23:49 41.81801 27.10317 27007 ft 441 kts 120°
2026-04-25 23:49 41.80211 27.13749 26806 ft 429 kts 121°
2026-04-25 23:49 41.78579 27.17077 26350 ft 424 kts 122°
2026-04-25 23:50 41.76918 27.20314 25857 ft 421 kts 123°
2026-04-25 23:50 41.75239 27.23501 25414 ft 416 kts 124°
2026-04-25 23:50 41.73575 27.26647 24970 ft 413 kts 124°
2026-04-25 23:50 41.71906 27.29765 24536 ft 410 kts 127°
2026-04-25 23:51 41.69952 27.32529 24104 ft 409 kts 138°
2026-04-25 23:51 41.67697 27.34709 23829 ft 403 kts 149°
2026-04-25 23:51 41.65178 27.36297 23593 ft 396 kts 160°
2026-04-25 23:51 41.62573 27.37296 23459 ft 384 kts 165°
2026-04-25 23:52 41.60024 27.38187 23323 ft 373 kts 165°
2026-04-25 23:52 41.57551 27.39052 23071 ft 365 kts 165°
2026-04-25 23:52 41.55109 27.39908 22697 ft 361 kts 165°
2026-04-25 23:52 41.52687 27.40753 22274 ft 358 kts 165°
2026-04-25 23:53 41.50286 27.41587 21842 ft 355 kts 165°
2026-04-25 23:53 41.47897 27.42417 21432 ft 353 kts 165°
2026-04-25 23:53 41.45633 27.43598 21016 ft 349 kts 146°
2026-04-25 23:53 41.43884 27.45781 20601 ft 344 kts 122°
2026-04-25 23:54 41.42919 27.48655 20169 ft 339 kts 100°
2026-04-25 23:54 41.42859 27.51754 19999 ft 335 kts 77°
2026-04-25 23:54 41.43416 27.54770 20026 ft 338 kts 74°
2026-04-25 23:54 41.44009 27.57812 19810 ft 341 kts 74°
2026-04-25 23:55 41.44611 27.60923 19107 ft 349 kts 74°
2026-04-25 23:55 41.45207 27.64004 18953 ft 338 kts 74°
2026-04-25 23:55 41.45788 27.67011 18659 ft 333 kts 74°
2026-04-25 23:55 41.46364 27.69988 18302 ft 330 kts 74°
2026-04-25 23:56 41.46938 27.72945 17881 ft 328 kts 74°
2026-04-25 23:56 41.47501 27.75840 17473 ft 326 kts 74°
2026-04-25 23:56 41.48074 27.78793 17061 ft 324 kts 75°
2026-04-25 23:56 41.48623 27.81662 16673 ft 323 kts 77°
2026-04-25 23:57 41.48874 27.84641 16253 ft 322 kts 90°
2026-04-25 23:57 41.48688 27.87595 15941 ft 318 kts 96°
2026-04-25 23:57 41.48450 27.90477 15808 ft 307 kts 96°
2026-04-25 23:57 41.48226 27.93275 15580 ft 302 kts 95°
2026-04-25 23:58 41.47996 27.96099 15090 ft 305 kts 99°
2026-04-25 23:58 41.47438 27.98781 14933 ft 297 kts 113°
2026-04-25 23:58 41.46438 28.01152 14661 ft 293 kts 127°
2026-04-25 23:58 41.45051 28.03121 14341 ft 290 kts 141°
2026-04-25 23:59 41.43470 28.04784 14014 ft 289 kts 142°
2026-04-25 23:59 41.41894 28.06443 13690 ft 287 kts 142°
2026-04-25 23:59 41.40320 28.08069 13332 ft 285 kts 147°
2026-04-25 23:59 41.38582 28.09295 12996 ft 283 kts 161°
2026-04-26 00:00 41.36708 28.09936 12648 ft 280 kts 174°
2026-04-26 00:00 41.34774 28.10049 12297 ft 278 kts 181°
2026-04-26 00:00 41.32838 28.10077 11957 ft 277 kts 181°
2026-04-26 00:00 41.30916 28.10108 11643 ft 275 kts 181°
2026-04-26 00:01 41.29002 28.10140 11325 ft 274 kts 181°
2026-04-26 00:01 41.27106 28.10135 11004 ft 272 kts 187°
2026-04-26 00:01 41.25291 28.09548 10686 ft 267 kts 206°
2026-04-26 00:01 41.23726 28.08266 10373 ft 263 kts 223°
2026-04-26 00:02 41.22424 28.06584 10078 ft 261 kts 226°
2026-04-26 00:02 41.21134 28.04901 10008 ft 260 kts 226°
2026-04-26 00:02 41.19836 28.03215 10010 ft 262 kts 226°
2026-04-26 00:02 41.18467 28.01602 10008 ft 264 kts 216°
2026-04-26 00:03 41.16876 28.00374 10010 ft 265 kts 211°
2026-04-26 00:03 41.15267 27.99186 10009 ft 265 kts 211°
2026-04-26 00:03 41.13658 27.97989 10009 ft 265 kts 211°
2026-04-26 00:03 41.12056 27.96793 10009 ft 265 kts 211°
2026-04-26 00:04 41.10403 27.95706 10008 ft 266 kts 200°
2026-04-26 00:04 41.08609 27.95061 10009 ft 267 kts 196°
2026-04-26 00:04 41.06811 27.94454 10006 ft 267 kts 196°
2026-04-26 00:04 41.05005 27.93842 10008 ft 268 kts 196°
2026-04-26 00:05 41.03220 27.93238 10009 ft 268 kts 196°
2026-04-26 00:05 41.01368 27.92795 10009 ft 269 kts 184°
2026-04-26 00:05 40.99489 27.92812 10010 ft 270 kts 181°
2026-04-26 00:05 40.97632 27.92843 10011 ft 270 kts 181°
2026-04-26 00:06 40.95778 27.93201 10009 ft 273 kts 159°
2026-04-26 00:06 40.94226 27.94635 10012 ft 276 kts 130°
2026-04-26 00:06 40.93350 27.96897 9713 ft 280 kts 99°
2026-04-26 00:06 40.93382 27.99439 9388 ft 276 kts 81°
2026-04-26 00:07 40.93663 28.01938 9083 ft 274 kts 81°
2026-04-26 00:07 40.93939 28.04419 8783 ft 272 kts 81°
2026-04-26 00:07 40.94209 28.06883 8490 ft 269 kts 81°
2026-04-26 00:07 40.94476 28.09334 8189 ft 268 kts 81°
2026-04-26 00:08 40.94739 28.11768 7944 ft 266 kts 82°
2026-04-26 00:08 40.94998 28.14187 7689 ft 264 kts 82°
2026-04-26 00:08 40.95250 28.16581 7425 ft 262 kts 82°
2026-04-26 00:08 40.95498 28.18965 7171 ft 261 kts 82°
2026-04-26 00:09 40.95745 28.21313 6916 ft 259 kts 82°
2026-04-26 00:09 40.95998 28.23699 6658 ft 258 kts 82°
2026-04-26 00:09 40.96243 28.26011 6405 ft 256 kts 82°
2026-04-26 00:09 40.96487 28.28333 6135 ft 253 kts 82°
2026-04-26 00:10 40.96726 28.30633 5899 ft 250 kts 82°
2026-04-26 00:10 40.96962 28.32898 5641 ft 248 kts 82°
2026-04-26 00:10 40.97197 28.35155 5392 ft 247 kts 81°
2026-04-26 00:10 40.97427 28.37366 5185 ft 241 kts 81°
2026-04-26 00:11 40.97565 28.39544 5033 ft 236 kts 89°
2026-04-26 00:11 40.97558 28.41725 4817 ft 239 kts 89°
2026-04-26 00:11 40.97555 28.43912 4536 ft 236 kts 89°
2026-04-26 00:11 40.97553 28.46068 4315 ft 233 kts 89°
2026-04-26 00:12 40.97550 28.48207 4119 ft 232 kts 89°
2026-04-26 00:12 40.97392 28.50331 3912 ft 232 kts 101°
2026-04-26 00:12 40.97049 28.52413 3721 ft 232 kts 101°
2026-04-26 00:12 40.96714 28.54486 3491 ft 226 kts 101°
2026-04-26 00:13 40.96394 28.56479 3293 ft 218 kts 100°
2026-04-26 00:13 40.96083 28.58429 3127 ft 212 kts 100°
2026-04-26 00:13 40.95933 28.60270 3030 ft 191 kts 87°
2026-04-26 00:13 40.95962 28.61922 2997 ft 174 kts 88°
2026-04-26 00:14 40.95981 28.63512 3000 ft 168 kts 88°
2026-04-26 00:14 40.95997 28.65039 3005 ft 166 kts 88°
2026-04-26 00:14 40.96111 28.66525 3029 ft 164 kts 73°
2026-04-26 00:14 40.96553 28.67888 3015 ft 161 kts 57°
2026-04-26 00:15 40.97272 28.69012 3010 ft 160 kts 40°
2026-04-26 00:15 40.98179 28.69801 3022 ft 152 kts 28°
2026-04-26 00:15 40.99090 28.70465 3009 ft 148 kts 28°
2026-04-26 00:15 41.00039 28.70963 3005 ft 147 kts
2026-04-26 00:16 41.01052 28.71104 3009 ft 147 kts
2026-04-26 00:16 41.02072 28.71159 3010 ft 147 kts
2026-04-26 00:16 41.03090 28.71173 3009 ft 146 kts
2026-04-26 00:16 41.04111 28.71169 3009 ft 146 kts
2026-04-26 00:17 41.05128 28.71156 3009 ft 146 kts
2026-04-26 00:17 41.06146 28.71139 3009 ft 146 kts
2026-04-26 00:17 41.07164 28.71121 3010 ft 146 kts
2026-04-26 00:17 41.08179 28.71102 3010 ft 146 kts
2026-04-26 00:18 41.09199 28.71082 3010 ft 147 kts
2026-04-26 00:18 41.10219 28.71062 3011 ft 147 kts
2026-04-26 00:18 41.11240 28.71042 3010 ft 146 kts
2026-04-26 00:18 41.12246 28.71022 2993 ft 147 kts
2026-04-26 00:19 41.13280 28.71002 2878 ft 147 kts
2026-04-26 00:19 41.14302 28.70982 2710 ft 146 kts 360°
2026-04-26 00:19 41.15321 28.70962 2522 ft 147 kts 360°
2026-04-26 00:19 41.16329 28.70942 2343 ft 147 kts 360°
2026-04-26 00:20 41.17351 28.70922 2142 ft 147 kts 360°
2026-04-26 00:20 41.18375 28.70902 1948 ft 147 kts 360°
2026-04-26 00:20 41.19395 28.70882 1752 ft 147 kts 359°
2026-04-26 00:20 41.20421 28.70861 1556 ft 147 kts 359°
2026-04-26 00:21 41.21447 28.70841 1357 ft 147 kts 359°
2026-04-26 00:21 41.22469 28.70821 1156 ft 147 kts 359°
2026-04-26 00:21 41.23499 28.70801 956 ft 148 kts 359°
2026-04-26 00:21 41.24529 28.70780 760 ft 148 kts 358°
2026-04-26 00:22 41.25558 28.70764 566 ft 148 kts 358°
2026-04-26 00:22 41.26589 28.70735 410 ft 148 kts 358°
2026-04-26 00:22 41.27592 28.70702 334 ft 134 kts
2026-04-26 00:22 41.28464 28.70693 330 ft 111 kts 359°
2026-04-26 00:23 41.28953 28.70714 332 ft 45 kts 23°
2026-04-26 00:23 41.29084 28.70819 332 ft 1 kts 38°
2026-04-26 00:23 41.29085 28.70820 332 ft 1 kts 38°
2026-04-26 00:23 41.29094 28.70830 329 ft 0 kts 38°
2026-04-26 00:25 41.29102 28.70841 334 ft 7 kts 51°
2026-04-26 00:25 41.29129 28.70918 333 ft 10 kts 38°
2026-04-26 00:25 41.29202 28.70942 330 ft 11 kts 20°
2026-04-26 00:25 41.29232 28.71033 334 ft 12 kts 88°
2026-04-26 00:26 41.29209 28.71137 332 ft 12 kts 142°
2026-04-26 00:26 41.29121 28.71158 330 ft 13 kts 180°
2026-04-26 00:26 41.29024 28.71158 333 ft 15 kts 179°
2026-04-26 00:26 41.28919 28.71160 333 ft 16 kts 179°
2026-04-26 00:27 41.28807 28.71163 333 ft 17 kts 178°
2026-04-26 00:27 41.28688 28.71168 333 ft 18 kts 178°
2026-04-26 00:27 41.28562 28.71169 332 ft 18 kts 180°
2026-04-26 00:27 41.28431 28.71173 332 ft 19 kts 178°
2026-04-26 00:28 41.28295 28.71175 332 ft 20 kts 179°
2026-04-26 00:28 41.28155 28.71178 332 ft 20 kts 179°
2026-04-26 00:28 41.28011 28.71182 334 ft 21 kts 179°
2026-04-26 00:28 41.27863 28.71186 331 ft 21 kts 179°
2026-04-26 00:29 41.27712 28.71191 331 ft 22 kts 178°
2026-04-26 00:29 41.27559 28.71196 329 ft 22 kts 180°
2026-04-26 00:29 41.27403 28.71195 331 ft 23 kts 180°
2026-04-26 00:29 41.27244 28.71199 330 ft 23 kts 178°
2026-04-26 00:30 41.27083 28.71203 331 ft 23 kts 177°
2026-04-26 00:30 41.26922 28.71209 332 ft 23 kts 181°
2026-04-26 00:30 41.26795 28.71243 332 ft 15 kts 132°
2026-04-26 00:30 41.26782 28.71364 334 ft 14 kts 89°
2026-04-26 00:31 41.26785 28.71499 332 ft 15 kts 88°
2026-04-26 00:31 41.26788 28.71641 334 ft 16 kts 89°
2026-04-26 00:31 41.26790 28.71795 334 ft 17 kts 89°
2026-04-26 00:31 41.26792 28.71960 333 ft 18 kts 89°
2026-04-26 00:32 41.26786 28.72125 334 ft 16 kts 116°
2026-04-26 00:32 41.26712 28.72236 331 ft 17 kts 104°
2026-04-26 00:32 41.26712 28.72562 330 ft 19 kts 89°
2026-04-26 00:33 41.26714 28.72740 334 ft 20 kts 89°
2026-04-26 00:33 41.26717 28.72925 334 ft 21 kts 89°
2026-04-26 00:33 41.26720 28.73119 334 ft 21 kts 89°
2026-04-26 00:33 41.26714 28.73286 334 ft 17 kts 117°
2026-04-26 00:34 41.26632 28.73358 332 ft 7 kts 117°
2026-04-26 00:34 41.26631 28.73378 331 ft 1 kts 87°
2026-04-26 00:34 41.26636 28.73406 332 ft 0 kts 75°
2026-04-26 00:34 41.26642 28.73429 334 ft 4 kts 72°
2026-04-26 00:35 41.26643 28.73435 331 ft 0 kts 71°